This is the latest recevied weather packets stored in our database for station/object AD0YN. If no packets are shown the sender has not sent any weather packets the latest 10 day(s).
| Time | Temp. | Humidity | Pressure | Rain* | Wind** | Luminosity | Snow |
|---|---|---|---|---|---|---|---|
| 1777781184 | 10.56° C | 53% | 1017.4 hPa | 0 mm | - | 0 W/m² | - |
| 1777780881 | 10.56° C | 52% | 1017.4 hPa | 0 mm | - | 0 W/m² | - |
| 1777780577 | 10.56° C | 51% | 1017.6 hPa | 0 mm | - | 0 W/m² | - |
| 1777780275 | 11.11° C | 51% | 1017.8 hPa | 0 mm | - | 0 W/m² | - |
| 1777779973 | 11.11° C | 50% | 1017.6 hPa | 0 mm | - | 0 W/m² | - |
| 1777779670 | 11.11° C | 49% | 1017.8 hPa | 0 mm | - | 0 W/m² | - |
| 1777779367 | 11.11° C | 49% | 1017.7 hPa | 0 mm | - | 0 W/m² | - |
| 1777779064 | 11.11° C | 49% | 1017.8 hPa | 0 mm | - | 0 W/m² | - |
| 1777778763 | 11.67° C | 49% | 1017.9 hPa | 0 mm | - | 0 W/m² | - |
| 1777778460 | 11.67° C | 48% | 1018.1 hPa | 0 mm | - | 0 W/m² | - |
| 1777778158 | 11.67° C | 46% | 1018 hPa | 0 mm | - | 0 W/m² | - |
| 1777777855 | 11.67° C | 46% | 1017.9 hPa | 0 mm | - | 0 W/m² | - |
| 1777777551 | 11.67° C | 47% | 1018.1 hPa | 0 mm | - | 0 W/m² | - |
| 1777777248 | 11.67° C | 46% | 1018 hPa | 0 mm | - | 0 W/m² | - |
| 1777776945 | 11.67° C | 47% | 1017.8 hPa | 0 mm | - | 0 W/m² | - |
| 1777776643 | 12.22° C | 48% | 1017.8 hPa | 0 mm | - | 0 W/m² | - |
| 1777776338 | 12.22° C | 45% | 1017.8 hPa | 0 mm | - | 0 W/m² | - |
| 1777776036 | 12.22° C | 47% | 1017.9 hPa | 0 mm | - | 0 W/m² | - |
| 1777775733 | 11.67° C | 46% | 1017.8 hPa | 0 mm | - | 0 W/m² | - |
| 1777775430 | 11.67° C | 48% | 1017.7 hPa | 0 mm | - | 0 W/m² | - |
| 1777775127 | 11.11° C | 49% | 1017.8 hPa | 0 mm | - | 0 W/m² | - |
| 1777774827 | 11.67° C | 51% | 1017.6 hPa | 0 mm | - | 0 W/m² | - |
| 1777774524 | 11.67° C | 49% | 1017.8 hPa | 0 mm | - | 0 W/m² | - |
| 1777774221 | 11.11° C | 49% | 1017.6 hPa | 0 mm | - | 0 W/m² | - |
| 1777773918 | 11.11° C | 50% | 1017.7 hPa | 0 mm | - | 0 W/m² | - |
* Rain latest hour (hover to see other rain measurements)
** Current wind speed in m/s (hover to see current wind gust speed)